W5CMS-13 Weather Reports


Display with metric or nautical units.
time (UTC)temp
F
wind
direction
speed
MPH
gust
MPH
rain 1hr
in
rain 24hr
in
rain mn
in
humidity
%
barometer
mb
20260506002016 77 0.0 6.0 0.00 0.00 0.00 70 1004.4
20260506001017 78 0.0 6.0 0.00 0.00 0.00 68 1004.6
20260506000016 79 0 1.0 8.0 0.00 0.00 0.00 68 1003.9
20260505235016 80 0.0 2.0 0.00 0.00 0.00 66 1003.6
20260505234016 82 0 1.0 9.0 0.00 0.00 0.00 64 1003.7
20260505233016 84 23 1.0 8.0 0.00 0.00 0.00 62 1003.8
20260505232016 86 0 1.0 7.0 0.00 0.00 0.00 57 1003.4
20260505231016 87 23 1.0 7.0 0.00 0.00 0.00 54 1003.3
20260505230016 88 0.0 2.0 0.00 0.00 0.00 54 1003.0
20260505225016 90 248 1.0 9.0 0.00 0.00 0.00 56 1003.0
20260505224016 89 203 1.0 6.0 0.00 0.00 0.00 57 1002.9
20260505223016 89 0.0 0.0 0.00 0.00 0.00 57 1002.8
20260505222016 89 248 2.0 8.0 0.00 0.00 0.00 57 1002.6
20260505221016 89 0.0 4.0 0.00 0.00 0.00 58 1002.6
20260505220016 90 248 1.0 7.0 0.00 0.00 0.00 58 1002.8
20260505215016 89 248 1.0 7.0 0.00 0.00 0.00 59 1002.9
20260505214016 89 203 1.0 7.0 0.00 0.00 0.00 59 1002.9
20260505213016 89 270 1.0 8.0 0.00 0.00 0.00 59 1003.0
20260505212016 90 203 1.0 7.0 0.00 0.00 0.00 61 1003.1
20260505211016 90 225 3.0 11.0 0.00 0.00 0.00 60 1003.2
20260505210016 89 225 2.0 8.0 0.00 0.00 0.00 63 1003.2
20260505205016 88 225 3.0 12.0 0.00 0.00 0.00 64 1003.4
20260505204016 88 225 6.0 15.0 0.00 0.00 0.00 64 1003.5
20260505203016 88 248 3.0 15.0 0.00 0.00 0.00 64 1003.8
20260505202017 87 203 4.0 13.0 0.00 0.00 0.00 66 1003.7
20260505201016 87 225 5.0 11.0 0.00 0.00 0.00 67 1003.8
20260505200016 87 225 3.0 14.0 0.00 0.00 0.00 66 1003.8
20260505195016 87 225 3.0 11.0 0.00 0.00 0.00 67 1003.9
20260505194016 86 225 2.0 8.0 0.00 0.00 0.00 67 1004.0
20260505193016 85 248 3.0 12.0 0.00 0.00 0.00 68 1003.9
20260505192016 85 203 5.0 14.0 0.00 0.00 0.00 69 1004.0
20260505191016 84 225 6.0 16.0 0.00 0.00 0.00 69 1004.0
20260505190016 84 225 6.0 13.0 0.00 0.00 0.00 71 1004.1
20260505185016 83 203 5.0 13.0 0.00 0.00 0.00 71 1004.1
20260505184016 83 248 4.0 12.0 0.00 0.00 0.00 72 1004.2
20260505183016 83 225 4.0 13.0 0.00 0.00 0.00 72 1004.1
20260505182016 83 225 3.0 12.0 0.00 0.00 0.00 71 1004.1
20260505181016 83 225 4.0 11.0 0.00 0.00 0.00 72 1004.3
20260505180016 82 225 3.0 12.0 0.00 0.00 0.00 73 1004.2
20260505175016 82 225 4.0 10.0 0.00 0.00 0.00 73 1004.2
20260505174016 82 248 2.0 13.0 0.00 0.00 0.00 74 1004.2
20260505173019 81 225 3.0 14.0 0.00 0.00 0.00 75 1004.3
20260505172020 80 225 5.0 15.0 0.00 0.00 0.00 76 1004.4
20260505171016 79 225 4.0 11.0 0.00 0.00 0.00 76 1004.5
20260505170016 79 225 8.0 17.0 0.00 0.00 0.00 77 1004.3
20260505165016 79 225 7.0 15.0 0.00 0.00 0.00 76 1004.3
20260505164016 79 225 7.0 19.0 0.00 0.00 0.00 76 1004.2
20260505163016 79 225 5.0 15.0 0.00 0.00 0.00 77 1004.1
20260505162016 79 225 8.0 22.0 0.00 0.00 0.00 77 1004.2
20260505161016 78 225 6.0 20.0 0.00 0.00 0.00 77 1004.1
20260505153016 77 225 5.0 16.0 0.00 0.00 0.00 79 1003.9
20260505152016 77 225 6.0 17.0 0.00 0.00 0.00 79 1004.0
20260505151016 76 225 7.0 17.0 0.00 0.00 0.00 80 1004.2
20260505125016 72 203 4.0 16.0 0.00 0.00 0.00 86 1003.5
20260505124016 72 225 5.0 16.0 0.00 0.00 0.00 86 1003.8
20260505123016 72 225 5.0 14.0 0.00 0.00 0.00 86 1003.3
20260505122016 72 225 4.0 18.0 0.00 0.00 0.00 86 1003.2
20260505121016 72 225 4.0 15.0 0.00 0.00 0.00 86 1003.3
20260505120016 72 225 2.0 9.0 0.00 0.00 0.00 86 1003.2
20260505115016 72 225 4.0 13.0 0.00 0.00 0.00 86 1003.1
20260505114016 72 225 5.0 15.0 0.00 0.00 0.00 86 1003.0
20260505113016 72 225 5.0 19.0 0.00 0.00 0.00 86 1003.1
20260505112016 72 225 4.0 14.0 0.00 0.00 0.00 86 1003.0
20260505111016 72 225 4.0 13.0 0.00 0.00 0.00 85 1003.1
20260505102016 72 203 3.0 13.0 0.00 0.00 0.00 86 1003.2
20260505101017 72 225 5.0 18.0 0.00 0.00 0.00 85 1003.2
20260505100017 72 203 5.0 17.0 0.00 0.00 0.00 85 1003.2
20260505095016 72 225 3.0 14.0 0.00 0.00 0.00 86 1003.3
20260505094016 72 203 5.0 11.0 0.00 0.00 0.00 86 1003.2
20260505093016 71 225 5.0 12.0 0.00 0.00 0.00 86 1003.4
20260505092016 71 225 5.0 15.0 0.00 0.00 0.00 86 1003.5
20260505091016 71 225 5.0 15.0 0.00 0.00 0.00 86 1003.5
20260505090016 71 203 4.0 11.0 0.00 0.00 0.00 86 1003.5
20260505085016 71 225 5.0 17.0 0.00 0.00 0.00 86 1003.5
20260505084016 71 203 4.0 15.0 0.00 0.00 0.00 86 1003.6
20260505083016 71 203 2.0 13.0 0.00 0.00 0.00 86 1003.6
20260505082016 71 203 2.0 13.0 0.00 0.00 0.00 85 1003.6
20260505081016 71 225 2.0 12.0 0.00 0.00 0.00 85 1003.7
20260505080016 72 225 5.0 15.0 0.00 0.00 0.00 84 1003.7
20260505075016 72 203 5.0 13.0 0.00 0.00 0.00 84 1003.8
20260505074016 72 203 5.0 12.0 0.00 0.00 0.00 84 1004.0
20260505073016 72 225 5.0 14.0 0.00 0.00 0.00 83 1004.3
20260505072017 72 203 5.0 12.0 0.00 0.00 0.00 83 1004.4
20260505071016 73 225 6.0 13.0 0.00 0.00 0.00 82 1004.5
20260505070016 73 225 7.0 17.0 0.00 0.00 0.00 82 1004.7
20260505065016 73 225 6.0 19.0 0.00 0.00 0.00 81 1004.7
20260505064016 73 203 5.0 12.0 0.00 0.00 0.00 81 1004.9
20260505063016 73 203 4.0 13.0 0.00 0.00 0.00 81 1005.0
20260505062016 72 225 5.0 17.0 0.00 0.00 0.00 81 1004.9
20260505061016 72 203 5.0 13.0 0.00 0.00 0.00 80 1004.9
20260505060016 72 203 5.0 14.0 0.00 0.00 0.00 80 1004.8
20260505055018 73 180 3.0 10.0 0.00 0.00 0.00 80 1004.9
20260505054016 73 203 4.0 13.0 0.00 0.00 0.00 79 1005.0
20260505053016 73 203 2.0 13.0 0.00 0.00 0.00 79 1005.1
20260505052016 73 203 4.0 12.0 0.00 0.00 0.00 79 1005.1
20260505051016 73 225 4.0 13.0 0.00 0.00 0.00 78 1005.3
20260505041016 74 203 2.0 10.0 0.00 0.00 0.00 76 1005.5
20260505040016 74 203 1.0 7.0 0.00 0.00 0.00 75 1005.5
20260505035017 74 203 2.0 10.0 0.00 0.00 0.00 75 1005.4
20260505034016 74 203 3.0 11.0 0.00 0.00 0.00 75 1005.3
20260505033016 75 203 3.0 10.0 0.00 0.00 0.00 74 1005.4
20260505032016 75 180 1.0 8.0 0.00 0.00 0.00 74 1005.4
20260505031017 75 203 5.0 15.0 0.00 0.00 0.00 74 1005.3
20260505030016 75 203 3.0 12.0 0.00 0.00 0.00 74 1005.4
20260505025016 75 225 5.0 15.0 0.00 0.00 0.00 73 1005.5
20260505024016 75 203 2.0 9.0 0.00 0.00 0.00 73 1005.4
20260505023016 75 203 2.0 10.0 0.00 0.00 0.00 73 1005.3
20260505022016 75 203 3.0 9.0 0.00 0.00 0.00 73 1005.2
20260505021017 75 180 3.0 11.0 0.00 0.00 0.00 72 1005.1
20260505020017 76 203 2.0 11.0 0.00 0.00 0.00 72 1005.1
20260505015016 76 203 2.0 10.0 0.00 0.00 0.00 71 1005.1
20260505014016 76 203 2.0 9.0 0.00 0.00 0.00 71 1005.2
20260505013017 76 203 3.0 12.0 0.00 0.00 0.00 70 1005.0
20260505012017 77 225 7.0 17.0 0.00 0.00 0.00 69 1005.2
20260505011016 77 225 7.0 15.0 0.00 0.00 0.00 69 1005.1
20260505010017 77 203 7.0 15.0 0.00 0.00 0.00 69 1005.1
20260505005016 77 203 5.0 14.0 0.00 0.00 0.00 68 1004.9
20260505004016 77 203 7.0 21.0 0.00 0.00 0.00 68 1005.0
20260505003017 78 203 7.0 16.0 0.00 0.00 0.00 67 1005.2